• Join FlightAware (Why Join?)
  • Login
  • US Flag 
01:29AM EDT


 

Airport Tracker/Info


-or-


 

Live Flight TrackerFlight Track Log ✈ UAL33 ✈ 21-Jun-2013 ✈ KORD - KIAH

Flight Track Log - Related Links

Times and Time Zones

All times are in EDT time to prevent confusion due to time zone crossing. See the UAL33 flight status page for this flight to view local times or setup timezone preferences in your user account.

Time Position Orientation Groundspeed Altitude Reporting Facility
EDT Latitude Longitude Course Direction KTS MPH feet Rate Location/Type
10:41PM 41.9800 -87.9180 326° Northwest 30 35  Level FlightAware
10:41PM 41.9810 -87.9180 360° North 15 17  Level FlightAware
10:42PM 41.9830 -87.9180 360° North 34 39  Level FlightAware
10:42PM 41.9840 -87.9180 360° North 16 18  Level FlightAware
10:42PM 41.9860 -87.9180 360° North 30 35  Level FlightAware
10:43PM 41.9870 -87.9180 360° North 30 35  Level FlightAware
10:43PM 41.9870 -87.9150 90° East 32 37  Level FlightAware
10:44PM 41.9890 -87.9130 37° Northeast 19 22  Level FlightAware
10:44PM 41.9890 -87.9120 90° East 21 24  Level FlightAware
10:45PM 41.9910 -87.9100 37° Northeast 16 18  Level FlightAware
10:45PM 41.9920 -87.9090 37° Northeast 28 32  Level FlightAware
10:46PM 41.9940 -87.9080 20° North 2 2  Level FlightAware
10:47PM 41.9950 -87.9090 323° Northwest 22 25 60 Level FlightAware
10:49PM 41.8158 -88.0415 200° South  Level Estimated
10:50PM 41.7246 -88.1086 201° Southwest  Level Estimated
10:51PM 41.6334 -88.1755 197° South  Level Estimated
10:51PM 41.9950 -87.9100 197° South  Level FlightAware
10:52PM 41.9960 -87.9100 360° North 12 14 60 Level FlightAware
10:52PM 41.9970 -87.9120 304° West 16 18 120 Level FlightAware
10:53PM 41.9990 -87.9140 323° Northwest 20 23 120 Level FlightAware
10:54PM 42.0030 -87.9180 323° Northwest 33 38 120 Level FlightAware
10:55PM 42.0020 -87.9160 124° Southeast 22 25 180 Level FlightAware
10:57PM 41.9900 -87.9010 137° Southeast 181 208 700 840 Climbing FlightAware
10:57PM 41.9750 -87.8890 149° Southeast 179 206 2,100 3,600 Climbing FlightAware
10:58PM 41.9490 -87.8850 173° South 201 231 3,700 2,760 Climbing FlightAware
10:58PM 41.9260 -87.8790 169° South 246 283 4,500 1,440 Climbing FlightAware
10:59PM 41.9170 -87.8770 171° South 257 296 4,700 480 Climbing FlightAware
10:59PM 41.8690 -87.8660 170° South 262 302 4,900 480 Climbing FlightAware
11:00PM 41.8370 -87.8590 171° South 263 303 5,200 1,140 Climbing FlightAware
11:00PM 41.8260 -87.8580 176° South 260 299 5,600 2,040 Climbing FlightAware
11:00PM 41.8100 -87.8620 191° South 256 295 6,400 3,420 Climbing FlightAware
11:01PM 41.7770 -87.8860 208° Southwest 272 313 8,300 4,320 Climbing FlightAware
11:01PM 41.7280 -87.9250 211° Southwest 302 348 10,900 3,960 Climbing FlightAware
11:02PM 41.6750 -87.9670 211° Southwest 308 354 13,900 3,180 Climbing FlightAware
11:03PM 41.6220 -88.0080 210° Southwest 357 411 15,400 1,740 Climbing FlightAware
11:03PM 41.5550 -88.0610 211° Southwest 416 479 16,400 1,500 Climbing FlightAware
11:04PM 41.4840 -88.1170 211° Southwest 460 529 17,500 1,920 Climbing FlightAware
11:05PM 41.4140 -88.1690 209° Southwest 480 552 18,900 2,460 Climbing FlightAware
11:05PM 41.3330 -88.2130 202° Southwest 495 570 20,700 2,700 Climbing FlightAware
11:06PM 41.2190 -88.2640 199° South 506 582 23,000 2,340 Climbing FlightAware
11:07PM 41.1350 -88.3020 199° South 521 600 24,200 2,100 Climbing FlightAware
11:08PM 41.0250 -88.3510 199° South 529 609 26,000 2,100 Climbing FlightAware
11:08PM 40.9300 -88.3940 199° South 530 610 27,400 1,980 Climbing FlightAware
11:09PM 40.8340 -88.4450 202° Southwest 530 610 28,800 2,280 Climbing FlightAware
11:10PM 40.7500 -88.5240 215° Southwest 519 597 30,600 1,560 Climbing FlightAware
11:12PM 40.6300 -88.6540 219° Southwest 503 579 33,300 2,280 Climbing FlightAware
11:12PM 40.5380 -88.8390 237° Southwest 494 568 35,900 3,840 Climbing FlightAware
11:13PM 40.4920 -88.9460 241° Southwest 492 566 36,900 1,320 Climbing FlightAware
11:13PM 40.4460 -89.0540 241° Southwest 490 564 37,800 1,200 Climbing FlightAware
11:14PM 40.3960 -89.1740 241° Southwest 491 565 38,700 1,080 Climbing FlightAware
11:15PM 40.3550 -89.2740 242° Southwest 491 565 39,300 480 Climbing FlightAware
11:16PM 40.2750 -89.4250 235° Southwest 486 559 39,600 360 Climbing FlightAware
11:17PM 40.1980 -89.5310 226° Southwest 484 557 40,000 240 Climbing FlightAware
11:17PM 40.1340 -89.6210 227° Southwest 485 558 40,000  Level FlightAware
11:18PM 40.0810 -89.6960 227° Southwest 485 558 40,000  Level FlightAware
11:19PM 40.0020 -89.8060 227° Southwest 484 557 40,000  Level FlightAware
11:19PM 39.9400 -89.8930 227° Southwest 483 556 40,000  Level FlightAware
11:20PM 39.8830 -89.9720 227° Southwest 480 552 40,000  Level FlightAware
11:21PM 39.8200 -90.0600 227° Southwest 477 549 40,000  Level FlightAware
11:22PM 39.7310 -90.1820 227° Southwest 476 548 40,000  Level FlightAware
11:22PM 39.6700 -90.2660 227° Southwest 476 548 40,000  Level FlightAware
11:23PM 39.6050 -90.3550 227° Southwest 478 550 40,000  Level FlightAware
11:24PM 39.5390 -90.4460 227° Southwest 481 554 40,000  Level FlightAware
11:25PM 39.4780 -90.5290 226° Southwest 482 555 40,000  Level FlightAware
11:25PM 39.4100 -90.6220 227° Southwest 480 552 40,000  Level FlightAware
11:26PM 39.3460 -90.7090 226° Southwest 476 548 40,000  Level FlightAware
11:27PM 39.2840 -90.7930 226° Southwest 476 548 40,000  Level FlightAware
11:28PM 39.2030 -90.9030 226° Southwest 478 550 40,000  Level FlightAware
11:28PM 39.1350 -90.9960 227° Southwest 479 551 40,000  Level FlightAware
11:29PM 39.0730 -91.0800 226° Southwest 479 551 40,000  Level FlightAware
11:30PM 39.0040 -91.1740 227° Southwest 482 555 40,000  Level FlightAware
11:30PM 38.9520 -91.2440 226° Southwest 481 554 40,000  Level FlightAware
11:31PM 38.9000 -91.3120 226° Southwest 481 554 40,000  Level FlightAware
11:32PM 38.8130 -91.4320 227° Southwest 481 554 40,000  Level FlightAware
11:33PM 38.7440 -91.5250 226° Southwest 479 551 40,000  Level FlightAware
11:33PM 38.7000 -91.5840 226° Southwest 480 552 40,000  Level FlightAware
11:34PM 38.5970 -91.7210 226° Southwest 480 552 40,000  Level FlightAware
11:35PM 38.5040 -91.8440 226° Southwest 482 555 40,000  Level FlightAware
11:36PM 38.4390 -91.9300 226° Southwest 483 556 40,000  Level FlightAware
11:37PM 38.3550 -92.0430 227° Southwest 490 564 40,000  Level FlightAware
11:37PM 38.2990 -92.1160 226° Southwest 490 564 40,000  Level FlightAware
11:38PM 38.2260 -92.2120 226° Southwest 490 564 40,000  Level FlightAware
11:39PM 38.1620 -92.2970 226° Southwest 487 560 40,000  Level FlightAware
11:39PM 38.0910 -92.3890 226° Southwest 492 566 40,000  Level FlightAware
11:40PM 38.0820 -92.4010 226° Southwest 492 566 40,000  Level FlightAware
11:41PM 37.9840 -92.5290 226° Southwest 486 559 40,000  Level FlightAware
11:41PM 37.9170 -92.6150 225° Southwest 483 556 40,000  Level FlightAware
11:42PM 37.8440 -92.7100 226° Southwest 478 550 40,000  Level FlightAware
11:43PM 37.7820 -92.7890 225° Southwest 474 545 40,000  Level FlightAware
11:43PM 37.7220 -92.8670 226° Southwest 473 544 40,000  Level FlightAware
11:44PM 37.6560 -92.9510 225° Southwest 479 551 40,000  Level FlightAware
11:45PM 37.5870 -93.0400 226° Southwest 483 556 40,000  Level FlightAware
11:46PM 37.5220 -93.1230 225° Southwest 485 558 40,000  Level FlightAware
11:46PM 37.4520 -93.2130 226° Southwest 485 558 40,000  Level FlightAware
11:47PM 37.3840 -93.2930 223° Southwest 484 557 40,000  Level FlightAware
11:48PM 37.3110 -93.3570 215° Southwest 484 557 40,000  Level FlightAware
11:48PM 37.2290 -93.4270 214° Southwest 483 556 40,000  Level FlightAware
11:49PM 37.1560 -93.4890 214° Southwest 484 557 40,000  Level FlightAware
11:50PM 37.0810 -93.5530 214° Southwest 482 555 40,000  Level FlightAware
11:51PM 36.9960 -93.6250 214° Southwest 476 548 40,000  Level FlightAware
11:51PM 36.9190 -93.6910 214° Southwest 480 552 40,000  Level FlightAware
11:52PM 36.8490 -93.7500 214° Southwest 480 552 40,000  Level FlightAware
11:53PM 36.7730 -93.8140 214° Southwest 477 549 40,000  Level FlightAware
11:53PM 36.6930 -93.8820 214° Southwest 472 543 40,000  Level FlightAware
11:54PM 36.6170 -93.9460 214° Southwest 475 547 40,000  Level FlightAware
11:55PM 36.5400 -94.0100 214° Southwest 472 543 40,000  Level FlightAware
11:56PM 36.4760 -94.0640 214° Southwest 469 540 40,000  Level FlightAware
11:57PM 36.2850 -94.2230 214° Southwest 472 543 40,000  Level FlightAware
11:58PM 36.2120 -94.2840 214° Southwest 469 540 40,000  Level FlightAware
11:58PM 36.1350 -94.3470 213° Southwest 467 537 40,000  Level FlightAware
11:59PM 36.0580 -94.4110 214° Southwest 465 535 40,000  Level FlightAware
12:00AM 35.9860 -94.4700 214° Southwest 464 534 40,000  Level FlightAware
12:00AM 35.9230 -94.5220 214° Southwest 464 534 40,000  Level FlightAware
12:01AM 35.8430 -94.5870 213° Southwest 462 532 40,000  Level FlightAware
12:02AM 35.7680 -94.6490 214° Southwest 463 533 40,000  Level FlightAware
12:03AM 35.6930 -94.7100 213° Southwest 464 534 40,000  Level FlightAware
12:03AM 35.5990 -94.7870 214° Southwest 464 534 40,000  Level FlightAware
12:04AM 35.5190 -94.8510 213° Southwest 462 532 40,000  Level FlightAware
12:05AM 35.4170 -94.9350 214° Southwest 465 535 40,000  Level FlightAware
12:06AM 35.3460 -94.9920 213° Southwest 464 534 40,000  Level FlightAware
12:07AM 35.2450 -95.0720 213° Southwest 465 535 40,000  Level FlightAware
12:07AM 35.1680 -95.1350 214° Southwest 466 536 40,000  Level FlightAware
12:08AM 35.1060 -95.1850 213° Southwest 464 534 40,000  Level FlightAware
12:09AM 35.0240 -95.2500 213° Southwest 465 535 40,000  Level FlightAware
12:09AM 34.9690 -95.2940 213° Southwest 465 535 40,000  Level FlightAware
12:10AM 34.8600 -95.3810 213° Southwest 473 544 40,000  Level FlightAware
12:11AM 34.7610 -95.4600 213° Southwest 474 545 40,000  Level FlightAware
12:12AM 34.6970 -95.5100 213° Southwest 475 547 40,000  Level FlightAware
12:13AM 34.6090 -95.5800 213° Southwest 474 545 40,000  Level FlightAware
12:13AM 34.5310 -95.6410 213° Southwest 474 545 40,000  Level FlightAware
12:14AM 34.4540 -95.7020 213° Southwest 473 544 40,000  Level FlightAware
12:15AM 34.3300 -95.7990 213° Southwest 473 544 40,000  Level FlightAware
12:16AM 34.2480 -95.8630 213° Southwest 472 543 40,000  Level FlightAware
12:16AM 34.1740 -95.9210 213° Southwest 474 545 40,000  Level FlightAware
12:17AM 34.0960 -95.9820 213° Southwest 472 543 40,000  Level FlightAware
12:18AM 34.0160 -96.0440 213° Southwest 473 544 40,000  Level FlightAware
12:19AM 33.9380 -96.1040 213° Southwest 475 547 40,000  Level FlightAware
12:19AM 33.8620 -96.1630 213° Southwest 474 545 40,000  Level FlightAware
12:20AM 33.7870 -96.2210 213° Southwest 473 544 40,000  Level FlightAware
12:20AM 33.7501 -96.2496 213° Southwest 473 544 40,000  Level FlightAware ADS-B
12:21AM 33.6945 -96.2924 213° Southwest 473 544 40,000  Level FlightAware ADS-B
12:21AM 33.6384 -96.3356 213° Southwest 474 545 40,000  Level FlightAware ADS-B
12:22AM 33.5562 -96.3986 213° Southwest 475 547 40,000  Level FlightAware ADS-B
12:23AM 33.4995 -96.4420 213° Southwest 476 548 40,000  Level FlightAware ADS-B
12:23AM 33.4431 -96.4851 213° Southwest 476 548 40,000  Level FlightAware ADS-B
12:24AM 33.3875 -96.5274 212° Southwest 474 545 40,000  Level FlightAware ADS-B
12:24AM 33.3475 -96.5576 212° Southwest 474 545 40,000  Level FlightAware ADS-B
12:24AM 33.3255 -96.5699 205° Southwest 478 550 40,000  Level FlightAware ADS-B
12:24AM 33.3005 -96.5794 198° South 482 555 40,000  Level FlightAware ADS-B
12:25AM 33.2572 -96.5856 187° South 489 563 40,000  Level FlightAware ADS-B
12:25AM 33.1782 -96.5824 178° South 490 564 40,000  Level FlightAware ADS-B
12:26AM 33.0997 -96.5792 178° South 491 565 40,000  Level FlightAware ADS-B
12:26AM 33.0260 -96.5760 178° South 492 566 40,000  Level FlightAware
12:26AM 33.0023 -96.5751 178° South 491 565 40,000  Level FlightAware ADS-B
12:27AM 32.9326 -96.5722 178° South 491 565 40,000  Level FlightAware ADS-B
12:28AM 32.8395 -96.5681 178° South 491 565 40,000  Level FlightAware ADS-B
12:28AM 32.7461 -96.5645 178° South 492 566 40,000  Level FlightAware ADS-B
12:29AM 32.6503 -96.5606 178° South 492 566 40,000  Level FlightAware ADS-B
12:30AM 32.5591 -96.5569 178° South 495 570 40,000  Level FlightAware ADS-B
12:30AM 32.4826 -96.5538 178° South 495 570 40,000  Level FlightAware ADS-B
12:31AM 32.4111 -96.5509 178° South 495 570 40,000  Level FlightAware ADS-B
12:31AM 32.3399 -96.5480 178° South 496 571 40,000  Level FlightAware ADS-B
12:32AM 32.2495 -96.5443 178° South 496 571 40,000  Level FlightAware ADS-B
12:33AM 32.1346 -96.5396 178° South 494 568 40,000  Level FlightAware ADS-B
12:33AM 32.0641 -96.5366 178° South 494 568 40,000  Level FlightAware ADS-B
12:34AM 31.9947 -96.5338 178° South 494 568 40,000  Level FlightAware ADS-B
12:34AM 31.9182 -96.5308 178° South 495 570 40,000  Level FlightAware ADS-B
12:35AM 31.7790 -96.5252 178° South 496 571 40,000  Level FlightAware ADS-B
12:36AM 31.7097 -96.5224 178° South 495 570 40,000 -960 Level FlightAware ADS-B
12:37AM 31.5750 -96.5168 178° South 492 566 38,600 -1,500 Descending FlightAware ADS-B
12:37AM 31.5360 -96.5124 175° South 490 564 38,100 -2,340 Descending FlightAware ADS-B
12:37AM 31.4980 -96.5043 170° South 493 567 37,300 -2,940 Descending FlightAware ADS-B
12:38AM 31.4575 -96.4903 161° South 500 575 36,400 -3,000 Descending FlightAware ADS-B
12:38AM 31.3945 -96.4540 154° Southeast 506 582 34,900 -2,580 Descending FlightAware ADS-B
12:39AM 31.3324 -96.4140 151° Southeast 498 573 33,800 -2,700 Descending FlightAware ADS-B
12:39AM 31.2718 -96.3749 151° Southeast 500 575 32,200 -3,600 Descending FlightAware ADS-B
12:42AM 30.9057 -96.1442 152° Southeast 465 535 21,200 -3,600 Descending FlightAware ADS-B
12:43AM 30.8484 -96.1084 152° Southeast 458 527 19,700 -2,940 Descending FlightAware ADS-B
12:44AM 30.7377 -96.0392 152° Southeast 440 506 16,800 -2,460 Descending FlightAware ADS-B
12:46AM 30.5313 -95.9109 152° Southeast 379 436 12,300 -1,800 Descending FlightAware ADS-B
12:47AM 30.4708 -95.8730 151° Southeast 340 391 12,000 -480 Descending FlightAware ADS-B
12:47AM 30.4509 -95.8579 147° Southeast 328 377 11,900 -240 Descending FlightAware ADS-B
12:47AM 30.4352 -95.8435 142° Southeast 341 392 11,900 -420 Level FlightAware ADS-B
12:49AM 30.2892 -95.6911 138° Southeast 358 412 11,100 -720 Descending FlightAware ADS-B
12:50AM 30.2319 -95.6311 138° Southeast 304 350 10,000 -1,320 Descending FlightAware ADS-B
12:50AM 30.2165 -95.6150 138° Southeast 290 334 9,700 -1,620 Descending FlightAware ADS-B
12:51AM 30.1864 -95.5837 138° Southeast 282 325 8,800 -1,740 Descending FlightAware ADS-B
12:51AM 30.1714 -95.5681 138° Southeast 280 322 8,400 -1,620 Descending FlightAware ADS-B
12:51AM 30.1425 -95.5382 138° Southeast 275 316 7,600 -1,620 Descending FlightAware ADS-B
12:52AM 30.1278 -95.5228 138° Southeast 274 315 7,200 -1,620 Descending FlightAware ADS-B
12:52AM 30.1180 -95.5122 135° Southeast 272 313 6,900 -1,440 Descending FlightAware ADS-B
12:52AM 30.1157 -95.5088 128° Southeast 272 313 6,900 -1,140 Level FlightAware ADS-B
12:52AM 30.1105 -95.4985 118° Southeast 271 312 6,700 -1,500 Descending FlightAware ADS-B
12:52AM 30.1064 -95.4828 102° East 272 313 6,400 -1,680 Descending FlightAware ADS-B
12:52AM 30.1059 -95.4677 89° East 273 314 6,100 -1,200 Descending FlightAware ADS-B
12:53AM 30.1061 -95.4444 89° East 272 313 5,900 -420 Descending FlightAware ADS-B
12:53AM 30.1060 -95.4227 90° East 272 313 5,900  Level FlightAware ADS-B
12:53AM 30.1060 -95.4006 90° East 272 313 5,900  Level FlightAware ADS-B
12:54AM 30.1060 -95.3090 90° East 273 314 5,900  Level FlightAware ADS-B
12:54AM 30.1060 -95.2865 90° East 268 308 5,900 -480 Level FlightAware ADS-B
12:55AM 30.1060 -95.2197 90° East 239 275 5,400 -960 Descending FlightAware ADS-B
12:55AM 30.1061 -95.2008 90° East 232 267 4,900 -1,620 Descending FlightAware ADS-B
12:56AM 30.1061 -95.1498 90° East 233 268 3,900 -900 Descending FlightAware ADS-B
12:57AM 30.1057 -95.1160 93° East 221 254 3,900  Level FlightAware ADS-B
12:57AM 30.1024 -95.1038 114° Southeast 218 251 3,900  Level FlightAware ADS-B
12:57AM 30.0982 -95.0945 119° Southeast 216 249 3,900  Level FlightAware ADS-B
12:57AM 30.0818 -95.0644 122° Southeast 216 249 3,900  Level FlightAware ADS-B
12:58AM 30.0738 -95.0509 129° Southeast 216 249 3,900  Level FlightAware ADS-B
12:58AM 30.0686 -95.0456 142° Southeast 216 249 3,900  Level FlightAware ADS-B
12:58AM 30.0633 -95.0424 154° Southeast 217 250 3,900  Level FlightAware ADS-B
12:58AM 30.0558 -95.0406 168° South 218 251 3,900  Level FlightAware ADS-B
12:58AM 30.0513 -95.0404 178° South 219 252 3,900  Level FlightAware ADS-B
12:58AM 30.0481 -95.0405 182° South 219 252 3,900  Level FlightAware ADS-B
12:58AM 30.0449 -95.0407 183° South 219 252 3,900  Level FlightAware ADS-B
12:58AM 30.0375 -95.0426 195° South 220 253 3,900  Level FlightAware ADS-B
12:58AM 30.0343 -95.0442 203° Southwest 221 254 3,900  Level FlightAware ADS-B
12:58AM 30.0316 -95.0460 210° Southwest 222 255 3,900  Level FlightAware ADS-B
12:59AM 30.0282 -95.0490 217° Southwest 223 257 3,900  Level FlightAware ADS-B
12:59AM 30.0260 -95.0515 225° Southwest 225 259 3,900  Level FlightAware ADS-B
12:59AM 30.0233 -95.0552 230° Southwest 225 259 3,900  Level FlightAware ADS-B
12:59AM 30.0108 -95.0760 236° Southwest 227 261 3,900  Level FlightAware ADS-B
12:59AM 30.0040 -95.0879 237° Southwest 227 261 3,900  Level FlightAware ADS-B
12:59AM 30.0018 -95.0923 240° Southwest 227 261 3,900  Level FlightAware ADS-B
12:59AM 30.0002 -95.0961 244° Southwest 228 262 3,900  Level FlightAware ADS-B
12:59AM 29.9988 -95.0999 247° West 230 265 3,900 -1,500 Level FlightAware ADS-B
12:59AM 29.9969 -95.1062 251° West 231 266 3,700 -1,380 Descending FlightAware ADS-B
01:00AM 29.9957 -95.1105 252° West 234 269 3,700 -900 Level FlightAware ADS-B
01:00AM 29.9950 -95.1141 257° West 235 270 3,600 -2,040 Descending FlightAware ADS-B
01:00AM 29.9933 -95.1289 262° West 238 274 3,200 -1,680 Descending FlightAware ADS-B
01:00AM 29.9930 -95.1456 269° West 228 262 2,900 -1,200 Descending FlightAware ADS-B
01:00AM 29.9931 -95.1596 270° West 212 244 2,700 -1,020 Descending FlightAware ADS-B
01:01AM 29.9934 -95.1786 271° West 201 231 2,400 -960 Descending FlightAware ADS-B
01:01AM 29.9935 -95.1948 270° West 195 224 2,200 -1,020 Descending FlightAware ADS-B
01:01AM 29.9934 -95.2101 270° West 189 217 1,900 -1,140 Descending FlightAware ADS-B
01:01AM 29.9935 -95.2266 270° West 173 199 1,600 -960 Descending FlightAware ADS-B
01:02AM 29.9935 -95.2394 270° West 152 175 1,400 -840 Descending FlightAware ADS-B
01:02AM 29.9935 -95.2512 270° West 144 166 1,200 -840 Descending FlightAware ADS-B
01:02AM 29.9935 -95.2627 270° West 142 163 1,000 -540 Descending FlightAware ADS-B
01:02AM 29.9935 -95.2686 270° West 141 162 1,000 -540 Level FlightAware ADS-B
01:02AM 29.9935 -95.2792 270° West 140 161 800 -780 Descending FlightAware ADS-B
01:03AM 29.9934 -95.2920 269° West 138 159 600 -720 Descending FlightAware ADS-B
01:03AM 29.9934 -95.2987 270° West 138 159 500 -900 Descending FlightAware ADS-B
01:03AM 29.9934 -95.3076 270° West 138 159 300 -780 Descending FlightAware ADS-B
01:03AM 29.9934 -95.3233 270° West 139 160 100 -600 Descending FlightAware ADS-B